{"data":{"norad_id":51148,"epoch":"2026-09-19T09:56:20.048352Z","epoch_age_seconds":142003,"freshness":"FRESH","line1":"1 51148U 22005AW  26262.41412093  .00016831  00000+0  85119-3 0  9995","line2":"2 51148  53.2135 153.7058 0002534  94.7802 265.3484 15.17166412257924","mean_motion":15.17166412,"eccentricity":0.0002534,"inclination_deg":53.2135,"raan_deg":153.7058,"arg_perigee_deg":94.7802,"mean_anomaly_deg":265.3484,"bstar":0.00085119,"rev_number":25792,"period_min":94.913780624877,"perigee_km":512.66277487788,"apogee_km":516.15591736609,"semimajor_km":6892.546346122,"source":"CELESTRAK","updated_at":"2026-09-20T09:00:39.592870Z"}}